Date,TemperatureHighF,TemperatureAvgF,TemperatureLowF,DewpointHighF,DewpointAvgF,DewpointLowF,HumidityHigh,HumidityAvg,HumidityLow,PressureMaxIn,PressureMinIn,WindSpeedMaxMPH,WindSpeedAvgMPH,GustSpeedMaxMPH,PrecipitationSumIn
2013-1-5,27.9,27.2,26.8,25.6,25.1,24.6,93,91,89,29.40,29.32,1,0,1,0.00
2013-1-6,27.2,27.0,27.0,25.7,25.2,25.0,94,93,92,29.32,29.31,1,0,1,0.00
2013-1-7,42.8,42.2,41.6,37.2,35.8,34.0,81,78,74,29.15,29.04,13,4,13,0.00
2013-1-8,42.5,39.6,36.4,34.3,32.8,30.8,82,76,72,29.20,29.14,5,2,6,0.00
2013-1-14,32.2,32.2,32.2,20.7,20.7,20.7,62,62,62,29.46,29.46,4,4,4,0.00
2013-1-15,18.4,17.2,15.5,14.7,13.9,12.5,89,87,85,29.74,29.71,2,0,2,0.00
2013-1-16,16.9,16.5,15.5,14.1,13.8,12.8,89,89,89,29.71,29.70,2,0,2,0.00
2013-2-24,50.0,40.3,34.7,32.7,28.7,25.8,77,64,46,29.40,29.12,7,2,7,0.00
2013-2-25,54.2,39.8,30.1,36.9,28.5,20.5,93,67,28,29.29,29.00,16,3,16,0.02
2013-2-26,56.9,42.4,32.0,27.1,24.7,23.1,73,51,29,29.42,29.29,11,2,11,0.00
2013-2-27,58.7,42.2,28.8,33.7,28.7,23.3,83,61,34,29.40,29.30,6,2,7,0.00
2013-2-28,41.0,38.9,36.4,37.5,35.0,29.9,93,86,73,29.45,29.36,8,1,8,0.25
2013-3-1,69.3,47.5,34.2,50.5,38.8,32.6,95,75,38,29.45,29.35,8,2,8,0.00
2013-3-2,62.3,47.5,37.1,42.9,36.1,20.3,90,67,39,29.39,29.03,15,3,15,0.00
2013-3-3,54.2,43.3,33.1,26.6,21.8,18.3,66,44,28,29.38,29.14,20,4,20,0.00
2013-3-4,54.2,38.4,26.8,28.5,22.8,19.5,79,56,29,29.43,29.19,12,2,12,0.00
2013-3-5,45.4,35.8,29.3,32.9,26.8,22.0,90,71,46,29.20,29.03,11,2,11,0.00
2013-3-6,40.5,38.5,36.5,37.3,35.8,34.2,93,90,87,28.95,28.78,4,1,4,0.02
2013-3-7,59.4,42.1,34.7,42.1,36.1,32.8,95,81,44,29.21,28.96,10,2,10,0.00
2013-3-8,58.7,43.1,30.4,38.2,33.2,29.0,95,72,40,29.31,29.14,9,3,9,0.01
2013-3-9,64.6,45.0,29.5,32.0,28.4,25.6,86,57,24,29.51,29.31,7,2,7,0.00
2013-3-10,62.3,48.7,39.4,34.7,30.9,27.5,73,51,35,29.52,29.37,11,4,11,0.00
2013-3-11,59.2,44.5,32.9,35.7,30.0,25.8,84,60,31,29.48,29.30,12,3,12,0.00
2013-3-12,67.3,50.5,37.8,43.3,37.8,32.6,85,64,39,29.30,29.10,11,3,11,0.00
2013-3-13,63.7,51.4,42.1,45.2,40.9,36.1,85,69,48,29.26,29.17,8,2,8,0.00
2013-3-14,47.7,46.5,45.4,41.9,41.2,39.9,84,82,78,29.23,29.20,3,1,3,0.00
2013-3-16,57.6,44.6,36.9,34.4,31.3,25.4,83,61,38,28.96,28.85,15,5,15,0.01
2013-3-17,52.7,41.7,33.3,32.5,26.7,20.1,90,59,30,29.18,28.96,18,4,18,0.10
2013-3-18,54.2,40.9,27.9,34.2,25.1,18.6,86,57,27,29.34,29.12,20,4,20,0.00
2013-3-19,51.8,38.6,29.2,33.9,26.1,21.2,89,64,34,29.37,28.93,10,2,10,0.12
2013-3-20,54.0,39.6,32.4,42.6,32.0,20.2,94,77,41,28.95,28.64,20,2,20,0.41
2013-3-21,40.7,38.1,36.4,26.9,25.7,22.2,65,61,48,29.02,28.95,7,2,7,0.00
2013-3-22,38.9,35.5,32.8,21.0,20.6,19.8,61,54,47,29.44,29.41,4,1,4,0.00
2013-3-23,54.4,39.6,27.4,25.0,22.4,18.9,76,53,29,29.49,29.35,11,2,11,0.00
2013-3-24,51.5,32.9,25.7,29.5,23.5,20.1,83,70,41,29.48,29.42,9,1,9,0.00
2013-3-25,57.8,49.2,35.3,27.0,25.5,21.1,67,42,26,29.20,29.11,9,3,9,0.00
2013-3-26,35.6,33.4,32.0,26.1,25.0,23.7,76,71,67,29.17,29.15,4,1,4,0.00
2013-3-29,73.8,62.3,47.9,39.9,35.1,29.9,65,39,22,29.35,29.24,8,3,8,0.00
2013-3-30,74.0,54.7,36.7,40.8,36.5,31.1,81,54,29,29.43,29.22,10,3,10,0.00
2013-3-31,79.7,57.2,38.5,43.8,37.8,32.9,83,53,23,29.26,29.04,7,2,7,0.00
2013-4-1,82.4,60.9,42.1,44.6,38.8,34.7,77,48,22,29.14,29.01,10,3,10,0.00
2013-4-2,73.3,60.7,50.4,42.6,39.6,37.1,63,47,30,29.20,29.12,17,5,17,0.00
2013-4-3,75.4,59.3,42.5,41.3,37.2,32.5,73,46,23,29.24,29.09,10,3,10,0.00
2013-4-4,56.5,51.1,48.2,48.2,42.7,36.5,93,75,50,29.09,28.83,8,1,8,0.20
2013-4-5,65.2,52.5,45.0,48.8,44.7,42.0,95,76,49,28.96,28.87,9,3,9,0.14
2013-4-6,63.7,51.1,43.9,45.1,39.2,30.8,93,66,32,28.98,28.87,11,3,11,0.07
2013-4-7,56.3,45.3,37.4,43.0,34.8,27.7,93,70,40,28.93,28.67,13,3,13,0.48
2013-4-8,64.4,49.4,40.3,41.8,36.6,30.5,84,63,39,29.34,28.89,9,2,9,0.02
2013-4-9,64.3,50.4,35.1,41.8,36.2,30.6,85,60,40,29.44,29.28,11,2,11,0.00
2013-4-10,64.4,51.9,41.6,51.8,38.7,32.7,84,63,36,29.28,28.96,18,4,18,0.03
2013-4-11,50.0,44.9,40.7,35.8,34.0,32.2,74,66,55,29.28,29.24,8,3,8,0.00
2013-4-16,44.5,44.5,44.5,24.3,24.3,24.1,45,45,45,29.44,29.44,0,0,0,0.00
2013-5-13,69.5,69.1,68.8,45.4,44.6,43.0,42,41,40,29.00,28.99,11,4,11,0.00
2013-5-29,69.1,59.7,48.6,55.5,45.1,38.7,74,59,42,29.02,28.84,8,2,8,0.03
2013-5-30,71.5,57.7,42.1,42.9,38.5,33.9,87,53,29,29.29,29.01,16,4,16,0.00
2013-5-31,79.6,62.0,43.7,44.8,40.6,37.3,79,49,25,29.38,29.29,8,2,8,0.00
2013-6-1,81.7,64.2,49.5,50.9,44.4,38.8,78,52,28,29.33,29.09,10,2,10,0.00
2013-6-2,76.3,64.0,50.8,51.3,43.2,39.4,81,50,29,29.14,29.02,14,5,14,0.01
2013-6-3,83.9,67.3,48.6,50.4,43.8,35.2,78,47,19,29.19,29.05,10,3,10,0.00
2013-6-4,88.9,69.5,48.8,52.8,47.6,42.5,82,50,22,29.27,29.10,7,2,7,0.00
2013-6-5,89.8,73.1,53.6,58.3,49.1,41.3,79,47,23,29.16,29.03,16,3,16,0.00
2013-6-6,95.4,76.3,54.9,61.3,47.5,33.8,74,39,18,29.14,28.97,13,2,13,0.00
2013-6-7,83.0,72.6,58.7,56.9,46.3,37.2,53,40,26,29.14,29.00,20,5,20,0.00
2013-6-8,85.1,70.9,57.6,54.2,43.2,37.1,53,38,19,29.18,29.04,11,4,11,0.00
2013-6-9,79.6,66.8,51.5,47.2,39.7,32.1,72,40,21,29.11,28.98,17,5,17,0.00
2013-6-10,85.0,67.8,48.1,48.3,40.8,35.0,68,40,21,29.06,28.83,12,2,12,0.00
2013-6-11,72.4,63.8,53.8,47.3,39.9,32.5,56,43,25,29.15,28.93,15,5,15,0.00
2013-6-12,54.4,52.7,48.2,37.4,36.5,35.9,65,54,51,29.17,29.15,6,2,6,0.00
2013-7-22,97.4,87.7,74.2,57.6,49.5,33.4,45,29,12,29.05,28.94,12,4,12,0.00
2013-7-23,105.7,84.0,63.4,61.2,53.0,44.4,66,38,17,29.12,28.94,10,2,10,0.00
2013-7-24,104.2,83.9,64.6,56.6,50.6,32.9,61,35,10,29.10,28.96,9,3,9,0.00
2013-7-25,101.2,83.3,65.3,52.9,45.2,30.3,56,31,6,29.12,29.01,15,4,15,0.00
2013-7-26,98.6,81.6,61.6,51.9,40.9,29.1,52,27,10,29.17,29.04,14,4,14,0.00
2013-7-27,91.3,78.8,66.8,51.0,42.3,30.2,44,29,13,29.14,28.96,12,4,12,0.00
2013-7-28,90.7,75.8,62.8,53.0,45.9,41.3,49,36,19,29.03,28.88,11,4,11,0.00
2013-7-29,95.6,76.0,57.2,60.7,51.8,40.2,73,46,19,29.05,28.92,8,2,9,0.00
2013-7-30,97.2,77.4,61.2,59.5,51.9,43.0,69,45,18,29.18,29.05,5,2,5,0.00
2013-7-31,88.2,73.6,61.2,65.3,53.6,46.5,70,51,30,29.21,29.05,15,2,15,0.00
2013-8-1,86.8,71.1,56.7,59.8,54.1,49.3,81,57,32,29.09,28.91,11,2,11,0.00
2013-8-2,79.9,68.9,59.2,57.7,53.4,49.8,86,59,39,29.19,29.06,11,3,11,0.14
2013-8-3,88.6,72.1,56.7,61.6,55.4,49.5,80,57,35,29.22,29.10,10,2,10,0.00
2013-8-4,95.6,74.5,59.0,65.3,58.8,53.9,85,62,30,29.18,29.01,10,2,10,0.01
2013-8-5,98.3,78.7,59.6,65.2,56.9,46.1,89,54,21,29.11,28.93,8,2,9,0.01
2013-8-6,100.1,80.4,58.3,62.7,51.5,35.3,75,41,15,29.08,28.93,11,2,11,0.00
2013-8-7,98.1,80.2,61.7,61.4,49.5,43.0,55,36,19,29.06,28.92,10,3,10,0.00
2013-8-8,100.6,81.0,63.0,68.0,54.7,48.2,62,42,20,29.07,28.92,10,2,10,0.00
2013-8-9,103.3,82.5,64.4,67.1,59.3,50.7,75,48,22,29.03,28.83,9,2,9,0.27
2013-8-10,95.4,79.2,66.2,69.5,62.0,53.7,86,58,34,29.10,28.93,15,3,15,0.07
2013-8-11,92.5,73.1,62.1,64.1,59.8,57.3,87,66,36,29.14,28.98,14,3,14,0.13
2013-8-12,95.6,75.4,59.2,63.2,57.7,54.3,85,58,29,29.14,28.99,9,3,9,0.00
2013-8-13,94.0,77.4,63.4,61.3,56.3,52.4,74,51,28,29.17,29.01,13,3,13,0.00
2013-8-14,93.1,75.8,59.6,69.5,56.5,50.7,76,53,34,29.08,28.93,9,2,9,0.00
2013-8-15,76.5,73.9,72.4,53.6,52.2,50.3,52,47,40,29.03,29.01,14,4,14,0.00
2013-9-5,67.1,64.4,63.4,61.5,60.0,58.8,88,86,82,29.08,29.03,8,3,8,0.67
2013-9-6,76.0,63.2,58.3,62.5,57.9,55.3,93,83,53,29.23,29.04,11,2,11,0.65
2013-9-7,71.8,61.9,57.4,61.7,57.3,54.2,92,85,67,29.24,29.16,8,1,8,0.03
2013-9-8,88.6,65.5,53.3,64.5,56.2,51.1,95,76,42,29.21,29.07,10,2,10,0.00
2013-9-30,60.7,49.1,41.2,46.8,42.4,37.3,93,78,56,29.03,28.71,13,4,13,0.37
2013-10-1,63.7,47.6,37.1,45.7,38.6,34.7,93,73,43,29.23,29.03,9,2,9,0.01
2013-10-2,59.2,47.3,40.0,45.5,41.2,35.8,93,80,58,29.25,29.16,10,2,10,0.22
2013-10-3,68.0,50.5,36.4,45.4,40.3,34.2,93,71,34,29.56,29.25,10,2,10,0.01
2013-10-4,68.4,50.1,35.6,45.3,39.5,33.0,92,70,39,29.64,29.49,6,2,8,0.00
2013-10-5,69.1,52.2,40.0,47.0,41.8,37.0,90,70,41,29.53,29.37,9,2,9,0.00
2013-10-6,73.8,52.1,38.9,49.5,42.8,36.5,93,74,39,29.38,29.02,5,2,5,0.00
2013-10-7,68.4,53.1,44.5,48.2,41.2,37.1,89,67,36,29.03,28.95,18,3,18,0.00
2013-10-8,61.7,48.1,40.9,44.4,39.7,36.2,88,74,41,29.17,28.99,13,2,13,0.01
2013-10-9,43.6,41.7,39.8,38.4,37.1,34.9,87,84,80,29.22,29.16,4,1,4,0.00
2013-12-22,34.6,28.1,24.3,27.8,24.1,21.2,91,85,74,29.42,29.38,3,0,3,0.00
2013-12-23,25.7,25.3,24.5,23.5,23.0,21.8,92,91,90,29.38,29.37,3,1,3,0.00
2013-12-25,39.4,29.6,19.3,31.4,25.1,17.0,92,84,68,29.66,29.55,6,1,6,0.01
2013-12-26,29.3,26.8,24.7,26.1,24.1,22.1,91,90,87,29.55,29.43,4,1,4,0.00
2013-12-27,27.2,26.7,26.3,24.9,24.3,23.9,91,91,90,29.43,29.41,4,2,4,0.00
2013-12-28,31.3,29.3,27.5,29.4,27.5,25.6,94,93,92,29.61,29.55,3,1,3,0.00
2013-12-29,30.8,28.0,26.3,28.8,26.0,24.7,94,92,87,29.58,29.37,4,1,7,0.00
2013-12-30,34.9,31.2,28.8,30.5,28.2,26.3,92,89,83,29.45,29.24,5,1,5,0.00
2013-12-31,55.1,34.9,25.9,41.5,29.9,23.3,93,83,52,29.47,29.23,7,2,7,0.01
2014-1-1,31.5,30.1,25.4,29.4,28.0,23.1,93,91,90,29.58,29.46,5,0,5,0.00
2014-1-2,38.2,32.1,28.8,32.7,29.1,26.6,93,89,78,29.48,28.95,6,1,6,0.07